Pecos, TX

10:48 PM CDT on October 21, 2017 (GMT -0500)
Pecos Municipal

Weather History for KPEQ - October, 2010

Change the Weather History Date:

Monday, October 11, 2010

  Actual Average Record
Temperature  
Mean Temperature 68 °F -  
Max Temperature 85 °F 84 °F 102 °F (1972)
Min Temperature 50 °F 50 °F 36 °F (1970)
Cooling Degree Days 2    
Growing Degree Days 18 (Base 50)    
Moisture  
Dew Point 44 °F    
Average Humidity 47    
Maximum Humidity 76    
Minimum Humidity 19    
Precipitation  
Precipitation 0.00 in - - ()
Sea Level Pressure  
Sea Level Pressure 29.97 in    
Wind  
Wind Speed 6 mph (NW)    
Max Wind Speed 13 mph    
Max Gust Speed -    
Visibility 10 miles    
Events      
Averages and records for this station are not official NWS values.
T = Trace of Precipitation, MM = Missing Value Source: NWS Daily Summary

Daily Weather History Graph

Daily Weather History Graph

Search for Another Location

Airport or City:

Trip Planner

Search our weather history database for the weather conditions in past years. The results will help you decide how hot, cold, wet, or windy it might be!

Date:

Astronomy

Oct. 11, 2010 Rise Set
Actual Time 7:54 AM CDT 7:26 PM CDT
Civil Twilight 7:29 AM CDT 7:51 PM CDT
Nautical Twilight 7:01 AM CDT 8:19 PM CDT
Astronomical Twilight 6:33 AM CDT 8:47 PM CDT
Moon 12:12 PM CDT (10/11) 10:26 PM CDT (10/11)
Length of Visible Light 12h 21m
Length of Day
11h 32m
Waxing Crescent, 19% of the Moon is Illuminated
Oct 11
Waxing Crescent
Oct 14
First Quarter
Oct 22
Full
Oct 30
Last Quarter
Nov 5
New

Hourly Weather History & Observations

Time (CDT) Temp. Dew Point Humidity Pressure Visibility Wind Dir Wind Speed Gust Speed Precip Events Conditions
12:05 AM 59.7 °F 35.6 °F 41% 29.93 in 10.0 mi SW 5.8 mph - N/A   Clear
12:25 AM 57.0 °F 36.0 °F 45% 29.93 in 10.0 mi WSW 4.6 mph - N/A   Clear
12:45 AM 55.8 °F 35.8 °F 47% 29.93 in 10.0 mi West 8.1 mph - N/A   Clear
1:05 AM 54.7 °F 37.4 °F 52% 29.94 in 10.0 mi WNW 9.2 mph - N/A   Clear
1:25 AM 57.6 °F 39.2 °F 50% 29.95 in 10.0 mi WNW 12.7 mph - N/A   Clear
1:45 AM 58.8 °F 38.5 °F 47% 29.95 in 10.0 mi NW 9.2 mph - N/A   Clear
2:05 AM 57.4 °F 38.3 °F 49% 29.95 in 10.0 mi West 4.6 mph - N/A   Clear
2:25 AM 54.5 °F 38.5 °F 55% 29.95 in 10.0 mi WNW 9.2 mph - N/A   Clear
2:45 AM 56.5 °F 38.3 °F 51% 29.95 in 10.0 mi NW 6.9 mph - N/A   Clear
3:05 AM 55.0 °F 38.7 °F 54% 29.95 in 10.0 mi NW 8.1 mph - N/A   Clear
3:25 AM 55.8 °F 39.2 °F 54% 29.95 in 10.0 mi NNW 8.1 mph - N/A   Clear
3:45 AM 55.8 °F 39.2 °F 54% 29.95 in 10.0 mi NNW 9.2 mph - N/A   Clear
4:05 AM 55.4 °F 40.1 °F 56% 29.95 in 10.0 mi NNW 5.8 mph - N/A   Clear
4:25 AM 55.4 °F 41.0 °F 58% 29.95 in 10.0 mi NW 8.1 mph - N/A   Clear
4:45 AM 54.7 °F 41.0 °F 60% 29.95 in 10.0 mi NW 6.9 mph - N/A   Clear
5:25 AM 54.5 °F 42.4 °F 64% 29.95 in 10.0 mi NW 6.9 mph - N/A   Clear
5:45 AM 54.5 °F 43.2 °F 66% 29.96 in 10.0 mi NW 6.9 mph - N/A   Clear
6:05 AM 54.9 °F 43.7 °F 66% 29.96 in 10.0 mi WNW 5.8 mph - N/A   Clear
6:25 AM 52.3 °F 42.8 °F 70% 29.97 in 10.0 mi West 4.6 mph - N/A   Clear
6:45 AM 51.4 °F 43.2 °F 73% 29.98 in 10.0 mi West 5.8 mph - N/A   Clear
7:05 AM 51.6 °F 43.5 °F 74% 29.99 in 10.0 mi West 8.1 mph - N/A   Clear
7:25 AM 51.3 °F 43.3 °F 74% 29.99 in 10.0 mi West 5.8 mph - N/A   Clear
7:45 AM 50.9 °F 43.7 °F 76% 30.00 in 10.0 mi NW 4.6 mph - N/A   Clear
8:05 AM 50.9 °F 43.5 °F 76% 30.00 in 10.0 mi WNW 3.5 mph - N/A   Clear
8:25 AM 52.3 °F 44.6 °F 75% 30.01 in 10.0 mi WNW 4.6 mph - N/A   Clear
8:45 AM 54.5 °F 45.5 °F 72% 30.02 in 10.0 mi West 4.6 mph - N/A   Clear
9:05 AM 58.3 °F 46.8 °F 66% 30.03 in 10.0 mi NW 8.1 mph - N/A   Clear
9:25 AM 61.0 °F 46.6 °F 59% 30.04 in 10.0 mi NW 6.9 mph - N/A   Clear
9:45 AM 63.5 °F 47.3 °F 56% 30.05 in 10.0 mi NW 5.8 mph - N/A   Clear
10:05 AM 66.2 °F 48.0 °F 52% 30.05 in 10.0 mi NNW 6.9 mph - N/A   Clear
10:25 AM 67.8 °F 48.6 °F 50% 30.05 in 10.0 mi North 4.6 mph - N/A   Clear
10:45 AM 68.9 °F 49.5 °F 50% 30.05 in 10.0 mi Calm Calm - N/A   Clear
11:05 AM 70.0 °F 50.2 °F 49% 30.05 in 10.0 mi Calm Calm - N/A   Clear
11:25 AM 70.9 °F 50.9 °F 49% 30.05 in 10.0 mi Calm Calm - N/A   Clear
11:45 AM 72.5 °F 51.3 °F 47% 30.05 in 10.0 mi Calm Calm - N/A   Clear
12:05 PM 73.4 °F 51.4 °F 46% 30.04 in 10.0 mi Calm Calm - N/A   Clear
12:25 PM 73.6 °F 52.2 °F 47% 30.04 in 10.0 mi Calm Calm - N/A   Clear
12:45 PM 75.9 °F 52.2 °F 43% 30.03 in 10.0 mi Calm Calm - N/A   Clear
1:05 PM 75.9 °F 52.3 °F 44% 30.02 in 10.0 mi Calm Calm - N/A   Clear
1:25 PM 78.1 °F 52.0 °F 40% 30.02 in 10.0 mi North 3.5 mph - N/A   Clear
1:45 PM 78.3 °F 51.4 °F 39% 30.00 in 10.0 mi Calm Calm - N/A   Clear
2:05 PM 80.2 °F 50.4 °F 35% 29.99 in 10.0 mi Calm Calm - N/A   Clear
2:25 PM 81.3 °F 50.4 °F 34% 29.97 in 10.0 mi NE 5.8 mph - N/A   Clear
2:45 PM 82.4 °F 49.8 °F 32% 29.96 in 10.0 mi Calm Calm - N/A   Clear
3:05 PM 83.5 °F 48.9 °F 30% 29.95 in 10.0 mi Calm Calm - N/A   Clear
3:25 PM 83.5 °F 48.7 °F 30% 29.93 in 10.0 mi NNE 3.5 mph - N/A   Clear
3:45 PM 83.8 °F 47.3 °F 28% 29.93 in 10.0 mi NE 4.6 mph - N/A   Clear
4:05 PM 84.9 °F 46.0 °F 26% 29.92 in 10.0 mi NE 5.8 mph - N/A   Clear
4:25 PM 85.1 °F 44.2 °F 24% 29.92 in 10.0 mi NE 5.8 mph - N/A   Clear
4:45 PM 85.1 °F 43.3 °F 23% 29.92 in 10.0 mi Calm Calm - N/A   Clear
5:05 PM 85.5 °F 42.1 °F 22% 29.92 in 10.0 mi Calm Calm - N/A   Clear
5:25 PM 85.1 °F 41.2 °F 21% 29.91 in 10.0 mi Calm Calm - N/A   Clear
5:45 PM 85.5 °F 39.2 °F 19% 29.91 in 10.0 mi Calm Calm - N/A   Clear
6:05 PM 85.3 °F 39.4 °F 20% 29.91 in 10.0 mi North 4.6 mph - N/A   Clear
6:25 PM 85.1 °F 39.4 °F 20% 29.91 in 10.0 mi NNE 3.5 mph - N/A   Clear
6:45 PM 84.2 °F 40.5 °F 21% 29.92 in 10.0 mi NNE 5.8 mph - N/A   Clear
7:05 PM 82.4 °F 40.6 °F 23% 29.92 in 10.0 mi NE 4.6 mph - N/A   Clear
7:25 PM 79.9 °F 41.2 °F 25% 29.93 in 10.0 mi ENE 5.8 mph - N/A   Clear
7:45 PM 77.0 °F 41.5 °F 28% 29.93 in 10.0 mi East 3.5 mph - N/A   Clear
8:05 PM 76.1 °F 41.0 °F 28% 29.93 in 10.0 mi ENE 4.6 mph - N/A   Clear
8:25 PM 72.1 °F 40.3 °F 32% 29.95 in 10.0 mi East 5.8 mph - N/A   Clear
8:45 PM 72.0 °F 40.1 °F 32% 29.95 in 10.0 mi SE 4.6 mph - N/A   Clear
9:05 PM 71.2 °F 39.2 °F 31% 29.96 in 10.0 mi ESE 5.8 mph - N/A   Clear
9:25 PM 70.5 °F 39.0 °F 32% 29.97 in 10.0 mi ESE 3.5 mph - N/A   Clear
9:45 PM 69.3 °F 38.5 °F 32% 29.98 in 10.0 mi SSE 3.5 mph - N/A   Clear
10:05 PM 68.7 °F 38.7 °F 33% 29.98 in 10.0 mi Calm Calm - N/A   Clear
10:25 PM 66.0 °F 37.9 °F 36% 29.98 in 10.0 mi SSW 5.8 mph - N/A   Clear
11:05 PM 62.1 °F 38.7 °F 42% 30.00 in 10.0 mi Calm Calm - N/A   Clear
11:25 PM 61.5 °F 38.8 °F 43% 30.01 in 10.0 mi SSE 4.6 mph - N/A   Clear
11:45 PM 61.9 °F 38.3 °F 42% 30.02 in 10.0 mi South 3.5 mph - N/A   Clear